www.pogodaiklimat.ru

Погода и климат >> Архив погоды >> Канада >> Baker Lake Climate


ПОГОДА в Baker Lake Climate

  • Прогноз погоды в Baker Lake Climate
  • Монитор погоды в Baker Lake Climate
  • Климат города

АРХИВ ПОГОДЫ в Baker Lake Climate

Время (UTC), дата Ветер
(напр.,м/с)
 
Видим.   Явления Облачность Т
(С)
Тd
(С)
f
(%)
Тe
(С)
Тes
(С)
Комфортность P
(гПа)
Po
(гПа)
Тmin
(С)
Tmax
(С)
R
(мм)
S
(см)
09 17.02 СВ 7 н/о н/о -16.6 -18.8 83 -27 -27 1004.6 997.9
12 17.02 СВ 10 н/о н/о -19.4 -21.9 80 -33 -33 опасность
обморожения
1005.5 998.7 -19.5 -15.4 0.2 2
15 17.02 В 9 н/о н/о -18.8 -21.2 81 -31 -31 опасность
обморожения
1006.8 1000.0
18 17.02 В 9 н/о н/о -18.0 -20.3 82 -30 -30 1006.9 1000.2 -19.8 -15.4
21 17.02 В 10 н/о н/о -16.7 -18.9 83 -29 -29 1006.9 1000.2
00 18.02 СВ 10 н/о н/о -17.0 -19.2 83 -30 -30 1007.6 1000.8 -19.8 -16.6
03 18.02 В 9 н/о н/о -17.3 -19.6 82 -30 -30 1008.8 1002.0
06 18.02 В 9 н/о н/о -18.1 -20.4 82 -31 -31 опасность
обморожения
1010.0 1003.2 -19.8 -15.4 22
09 18.02 В 11 н/о н/о -19.3 -21.7 81 -33 -33 опасность
обморожения
1010.2 1003.4
12 18.02 В 7 н/о н/о -19.9 -22.5 80 -32 -32 опасность
обморожения
1012.4 1005.6 -20.0 -15.4 2
15 18.02 В 6 н/о н/о -19.4 -21.9 80 -30 -30 1013.8 1007.0
18 18.02 В 6 н/о н/о -18.9 -21.4 81 -30 -30 1013.9 1007.1 -20.0 -18.0
21 18.02 В 4 н/о н/о -18.3 -20.6 82 -26 -26 1015.0 1008.2
00 19.02 В 6 н/о н/о -19.4 -21.9 80 -30 -30 1015.8 1008.9 -20.0 -17.8
03 19.02 В 6 н/о н/о -21.0 -23.7 79 -32 -32 опасность
обморожения
1016.5 1009.6
06 19.02 В 4 н/о н/о -20.8 -23.4 80 -30 -30 1016.9 1010.0 -21.5 -17.8 9
09 19.02 В 4 н/о н/о -20.7 -23.3 80 -30 -30 1018.0 1011.1
12 19.02 В 3 н/о н/о -21.3 -24.0 79 -28 -28 1018.1 1011.2 -21.5 -17.8 2
15 19.02 В 4 н/о н/о -22.0 -24.7 79 -31 -31 опасность
обморожения
1018.5 1011.6
18 19.02 СВ 3 н/о {осадки} н/о -20.7 -23.4 79 -29 -29 1019.4 1012.5 -22.6 -20.4 0.4
21 19.02 СВ 3 н/о н/о -19.1 -21.7 80 -26 -26 1020.1 1013.2 0.2
00 20.02 С 4 н/о {осадки} н/о -20.6 -23.2 80 -30 -30 1021.5 1014.6 -22.6 -18.8 0.4
03 20.02 н/о н/о -23.3 -26.1 78 1022.3 1015.4
06 20.02 С 5 н/о н/о -23.4 -26.3 77 -34 -34 опасность
обморожения
1024.2 1017.2 -24.0 -18.8
09 20.02 С 5 н/о н/о -23.0 -25.8 78 -34 -34 опасность
обморожения
1025.6 1018.7
12 20.02 С 3 н/о н/о -21.3 -24.0 79 -29 -29 1025.9 1019.0 -24.4 -18.8 4
15 20.02 СВ 3 н/о н/о -22.1 -24.9 78 -30 -30 1026.9 1019.9
18 20.02 В 1 н/о н/о -20.6 -23.3 79 -24 -24 1027.0 1020.0 -24.4 -20.2
21 20.02 СВ 6 н/о н/о -23.6 -26.5 77 -36 -36 опасность
обморожения
1027.3 1020.3
00 21.02 СВ 7 н/о н/о -24.1 -27.1 76 -37 -37 опасность
обморожения
1027.0 1020.0 -24.5 -20.0
03 21.02 С 8 н/о н/о -24.5 -27.6 75 -38 -38 опасность
обморожения
1026.4 1019.4
06 21.02 С 6 н/о н/о -26.2 -29.4 74 -39 -39 опасность
обморожения
1025.8 1018.8 -26.6 -20.0 3
09 21.02 С 9 н/о н/о -24.1 -27.1 76 -38 -38 опасность
обморожения
1024.9 1017.9
12 21.02 С 8 н/о н/о -24.1 -27.3 75 -38 -38 опасность
обморожения
1024.2 1017.2 -26.6 -20.0 2
15 21.02 н/о н/о -22.5 -26.0 73 1023.9 1016.9
18 21.02 С 9 н/о н/о -21.2 -25.0 71 -34 -34 опасность
обморожения
1022.9 1015.9 -26.6 -21.0
21 21.02 С 8 н/о н/о -19.5 -23.5 70 -32 -32 опасность
обморожения
1022.9 1016.0
00 22.02 н/о н/о -19.4 -23.2 72 1023.8 1016.9 -26.2 -18.8
03 22.02 С 6 н/о н/о -21.5 -25.2 72 -33 -33 опасность
обморожения
1024.6 1017.6
06 22.02 СЗ 7 н/о н/о -23.9 -27.6 71 -36 -36 опасность
обморожения
1025.1 1018.1 -26.2 -18.8 18
09 22.02 СЗ 7 н/о н/о -23.3 -27.3 70 -36 -36 опасность
обморожения
1025.9 1018.9
12 22.02 С 7 н/о н/о -23.2 -27.8 66 -36 -36 опасность
обморожения
1026.8 1019.8 -25.3 -18.8 2
15 22.02 СЗ 9 н/о н/о -21.8 -26.8 64 -35 -35 опасность
обморожения
1026.3 1019.3
18 22.02 СЗ 9 н/о н/о -21.6 -26.3 66 -35 -35 опасность
обморожения
1027.0 1020.0 -25.3 -20.1
21 22.02 СЗ 9 н/о н/о -22.1 -26.8 66 -36 -36 опасность
обморожения
1027.7 1020.7
00 23.02 СЗ 8 н/о н/о -23.4 -27.6 68 -37 -37 опасность
обморожения
1028.8 1021.8 -25.3 -20.1
03 23.02 СЗ 5 н/о н/о -23.5 -27.8 68 -34 -34 опасность
обморожения
1029.0 1022.0
06 23.02 СЗ 6 н/о н/о -24.2 -28.8 66 -36 -36 опасность
обморожения
1028.6 1021.6 -25.3 -20.1 20
09 23.02 СЗ 4 н/о н/о -24.0 -28.6 66 -34 -34 опасность
обморожения
1028.9 1021.9
12 23.02 СЗ 2 н/о н/о -24.2 -28.7 66 -31 -31 опасность
обморожения
1028.8 1021.8 -25.4 -20.1 2
21 23.02 З 2 н/о н/о -22.1 -27.0 64 -27 -27 1027.9 1020.9
00 24.02 ЮЗ 2 н/о н/о -24.4 -28.8 67 -31 -31 опасность
обморожения
1027.8 1020.8
03 24.02 З 2 н/о н/о -22.9 -27.8 64 -29 -29 1019.9

 

Местоположение метеостанции Baker Lake Climate (Канада): широта 64.32 долгота -96.00 высота над уровнем моря 51 м.

В архиве по умолчанию представлена погода в Baker Lake Climate за последнюю неделю. Архивные данные за месяц целиком и за предыдущие месяцы, начиная с января 2011 года, Вы можете получить, выбрав интересующий диапазон дат из раскрывающегося списка и нажав кнопку "Ввод!".

Внимание! Время в таблицах - всемирное. Для получения местного времени необходимо прибавить поправку, которая в Baker Lake Climate равна -6 ч.

Смотрите также архив погоды в соседних городах и на ближайших метеорологических станциях:

Погода в Baker Lake Airport (Канада) (4 км)
Погода в Back River MAPS (Канада) (197 км)
Погода в Rankin Inlet (Канада) (255 км)
Погода в Dubawnt Lake (Канада) (305 км)
Погода в Robertson Lake (Канада) (316 км)
Погода в Wager Bay (Канада) (353 км)
Погода в Arviat Climate (Канада) (372 км)
Погода в Arviat (Канада) (372 км)
Погода в Arviat Airport (Канада) (372 км)
Погода в Hanbury River ARS (Канада) (454 км)

Пояснения к столбцам:

Ветер - указаны скорость ветра в м/с - средняя за 10 мин, порывы в срок и между сроками (в фигурных скобках) и направление, откуда дует ветер: С - северный, СВ - северо-восточный, В - восточный, ЮВ - юго-восточный, Ю - южный, ЮЗ - юго-западный, З - западный, СЗ - северо-западный.
Видимость - горизонтальная дальность видимости в метрах или километрах. При видимости от 1 до 10 км при отсутствии осадков обычно наблюдается дымка, при ухудшении видимости до 1 км и менее - туман. В сухую погоду видимость может ухудшаться дымом, пылью или мглою.
Явления - указаны атмосферные явления, наблюдавшиеся в срок или в последний час перед сроком; фигурными скобками обозначены явления, наблюдавшиеся между сроками (за 1-3 часа до срока); квадратными скобками обозначены град или гололедные отложения с указанием их диаметра в мм.
Облачность - указаны через наклонную черту общая и нижняя облачность в баллах и высота нижней границы облаков в метрах; квадратными скобками обозначены формы облаков: Ci - перистые, Cs - перисто-слоистые, Cc - перисто-кучевые, Ac - высококучевые, As - высокослоистые, Sc - слоисто-кучевые, Ns - слоисто-дождевые, Cu - кучевые, Cb - кучево-дождевые. Подробнее классификацию облаков см. в Атласе облаков (PDF).
T - Температура воздуха - температура, измеренная на высоте 2 м над землей.
Td - Температура точки росы - температура, при понижении до которой содержащийся в воздухе водяной пар достигнет насыщения.
f - Относительная влажность воздуха - влажноcть воздуха, измеренная на высоте 2 м над землей.
Te - Эффективная температура - температура, которую ощущает одетый по сезону человек в тени. Характеристика душности погоды. При расчете учитывается влияние влажности воздуха и скорости ветра на теплоощущения человека.
Tes - Эффективная температура на солнце - температура, которую ощущает человек, с поправкой на солнечный нагрев. Характеристика знойности погоды. Зависит от высоты солнца над горизонтом, облачности и скорости ветра. Ночью, в пасмурную погоду, а также при ветре 12 м/с и более поправка равна нулю.
P - Атмосферное давление - приведенное к уровню моря атмосферное давление.
Po - Атмосферное давление - измеренное на уровне метеостанции атмосферное давление.
Tmin - Минимальная температура - минимум температуры воздуха на высоте 2 м над землей.
Tmax - Максимальная температура - максимум температуры воздуха на высоте 2 м над землей.
R - Количество осадков - Количество выпавших осадков, мм. При наведении курсора мыши на число - период времени, за который выпало указанное количество осадков.
S - Снежный покров - Высота снежного покрова, см. При наведении курсора мыши на число - состояние снежного покрова и степень покрытия местности в баллах.